カタログに戻る

STARLINK-4427

運用中通信SSO
NORAD 53210·PAYLOAD·🇺🇸 United States

打ち上げ Jul 22, 2022 から Vandenberg Space Force Base

Loading…

次のパス (今後24時間)

TLE

最新Source: CelesTrak SupGP

元期: Sep 15, 2026, 01:23 UTC

1 53210C 22084X   26258.05812500  .00047334  00000+0  14693-2 0  2584
2 53210  97.2832 312.9428 0001273  86.0145 345.6171 15.33417740    13

AllMySatでSTARLINK-4427をリアルタイム追跡

Download on the App Store